Theta_e
301 301 301 302 302 302 302 302 302 302 301 301 301 301 301 301 301 302 306 305 303 302 300 303 304 305 305 306 306 308 318 321 322 322 322 322 321 322 325 327 328 330 333 336 336
301 301 301 301 301 301 301 301 301 301 301 301 301 301 300 301 301 306 307 303 302 300 299 303 304 306 307 306 307 308 314 316 317 317 319 319 319 320 322 328 328 329 334 335 335
301 301 301 301 300 300 300 301 301 301 301 300 300 300 301 301 306 307 303 302 300 298 299 303 304 306 307 307 307 307 309 310 310 310 312 314 317 318 320 324 327 328 333 335 334
300 300 300 300 300 300 300 300 300 300 301 301 301 301 301 304 305 305 304 301 297 297 299 304 304 304 306 307 307 308 307 307 307 307 308 309 314 316 316 320 321 325 328 334 333
300 300 300 300 300 300 300 300 301 301 301 300 301 301 301 307 306 306 304 299 298 301 302 304 304 305 306 306 306 307 308 307 307 307 306 306 308 312 313 313 320 325 326 332 333
300 300 300 300 300 300 300 300 300 300 300 300 300 300 307 306 305 304 300 299 300 302 303 303 304 303 303 304 305 306 307 307 307 307 308 307 307 308 310 314 317 322 327 332 333
300 299 299 299 299 299 299 299 299 299 300 300 299 300 306 305 305 304 303 300 302 302 302 303 303 303 303 304 303 304 306 306 306 306 307 307 307 307 308 310 312 316 321 329 333
299 299 299 299 299 299 299 299 298 299 299 299 299 304 305 304 300 299 300 301 301 302 302 303 304 304 304 303 304 304 303 304 305 306 306 306 306 306 307 309 313 315 319 324 329
299 299 299 299 299 298 298 298 299 299 299 299 304 305 304 302 302 301 301 301 301 301 302 302 303 303 304 305 304 304 304 304 304 305 306 306 305 307 307 306 309 315 318 322 325
299 299 299 298 298 298 298 298 300 301 301 302 304 303 305 302 301 299 301 302 301 301 303 303 304 305 305 304 304 303 303 304 304 305 305 306 306 306 307 306 305 310 316 320 322
299 298 298 298 298 298 297 299 299 303 299 300 301 302 301 301 300 301 301 300 300 301 304 304 305 306 305 304 304 304 304 303 303 303 303 303 303 304 306 307 306 307 311 319 321
298 298 298 298 297 298 299 300 299 299 301 301 301 301 301 301 301 300 300 300 301 303 303 303 304 304 304 304 304 304 304 303 303 303 303 303 303 302 303 304 306 307 313 315 319
298 298 297 297 299 300 302 299 298 300 300 302 302 300 300 300 300 300 300 299 301 302 302 303 303 303 302 302 303 304 304 304 305 304 303 303 302 303 304 304 305 306 309 317 319
298 297 297 297 300 300 302 298 298 300 303 305 301 301 299 300 301 300 301 300 301 301 301 302 302 303 303 304 304 305 305 305 305 305 304 303 303 303 303 304 305 305 307 310 318
297 297 297 297 298 301 298 298 297 301 305 300 299 299 299 300 300 301 299 300 300 300 301 302 303 304 304 304 304 304 305 305 305 306 304 303 303 303 303 305 305 305 306 308 312
297 297 297 297 302 299 297 297 299 306 305 299 300 299 300 300 300 300 300 300 300 301 302 302 302 301 301 302 303 303 305 306 306 306 306 304 304 303 302 303 305 305 306 308 310
297 297 297 297 297 296 296 300 305 306 300 299 298 299 300 300 299 300 299 300 301 302 301 300 300 302 302 303 302 306 307 307 307 306 305 304 305 304 303 302 304 305 306 308 309
297 297 297 297 296 296 299 304 302 299 299 299 298 300 300 300 299 299 299 299 300 300 300 298 298 301 303 302 303 303 305 303 306 301 301 304 301 303 304 303 304 306 308 309 310
297 297 297 296 295 296 301 306 301 299 298 298 299 299 300 299 298 298 298 299 300 298 298 298 299 299 301 302 304 306 306 306 305 303 305 304 306 305 305 304 305 305 307 310 310
297 298 300 296 296 299 301 300 297 297 297 298 299 299 297 298 298 297 297 300 299 298 297 297 298 299 301 304 304 304 305 307 304 307 309 309 311 310 313 305 307 305 306 312 313
297 299 297 295 296 298 301 298 296 297 298 298 298 298 298 298 297 297 297 298 298 297 296 297 300 300 300 304 304 308 308 307 306 306 306 307 317 307 314 314 315 311 311 314 315
298 299 297 295 298 297 300 295 296 297 298 298 299 298 297 297 296 297 297 297 297 296 297 298 299 298 299 301 303 303 304 305 309 307 307 307 308 305 307 311 313 316 316 318 322
299 297 296 295 299 301 298 297 296 297 297 298 298 298 297 295 296 296 296 297 296 296 297 299 298 298 301 306 304 302 302 303 304 308 311 312 315 304 305 309 309 311 311 311 314
298 298 295 294 296 298 298 298 295 297 297 298 298 297 295 292 295 294 296 296 296 296 297 297 299 299 299 300 300 302 299 300 301 307 305 308 305 303 303 308 308 307 306 305 306
296 297 294 299 299 297 297 297 297 296 297 297 297 296 296 296 295 292 295 296 296 297 296 297 298 298 299 299 300 299 298 299 297 298 302 305 301 301 303 306 305 304 303 302 302
297 297 293 295 294 297 297 298 296 297 296 296 294 295 294 296 296 296 296 295 296 296 296 297 298 298 300 304 301 298 297 299 295 295 300 302 300 298 298 301 301 302 301 301 300
296 295 295 297 298 297 299 296 296 296 296 296 295 295 294 294 295 295 295 295 295 295 296 297 298 298 300 302 303 301 296 297 296 294 296 297 300 296 293 295 296 298 299 299 299
Wind_Speed
10 10 11 11 13 14 14 15 16 16 16 16 17 18 18 19 19 16 11 8 9 18 18 15 12 11 13 13 14 15 8 16 25 21 18 24 18 26 28 21 28 11 1 7 24
10 10 11 13 13 13 13 14 14 15 16 17 18 20 22 22 23 14 9 6 16 17 15 15 17 15 11 14 10 9 11 19 15 16 16 13 17 25 17 10 28 12 7 15 17
10 11 12 12 12 13 13 13 14 15 16 18 20 21 22 23 16 1 4 12 16 16 14 14 13 14 13 14 16 16 19 15 21 27 29 20 22 21 18 11 27 16 20 20 20
11 12 12 11 12 13 13 15 16 17 17 18 20 22 23 14 7 7 15 13 13 16 14 12 12 15 11 11 18 15 20 21 22 26 26 17 22 17 24 20 31 20 17 27 28
11 12 11 12 13 14 15 16 18 19 20 20 21 22 22 8 11 11 14 14 11 12 11 12 13 15 10 13 19 16 15 22 24 25 25 25 20 18 34 36 29 20 26 25 30
12 13 14 14 14 16 18 19 21 24 24 24 21 20 12 12 7 14 13 7 12 11 12 12 14 15 14 17 15 17 22 23 25 22 20 18 21 23 28 23 26 25 15 20 26
13 14 15 15 16 18 20 21 24 26 26 21 19 15 14 18 14 16 16 13 16 14 15 14 15 14 13 15 20 21 16 15 16 19 19 23 23 28 31 29 34 32 26 18 25
13 14 16 18 19 21 22 22 25 24 22 19 13 7 8 11 10 9 9 16 15 13 19 17 17 20 21 17 21 17 18 17 14 18 24 20 25 23 25 30 28 35 28 22 24
13 15 18 20 22 24 23 24 20 20 15 17 8 5 7 7 8 16 19 16 17 21 19 17 17 21 19 12 12 12 14 20 20 19 15 18 26 19 30 29 29 31 29 25 25
14 17 19 22 24 25 25 24 15 11 13 11 4 6 5 14 18 22 12 15 20 19 17 15 10 10 8 9 10 12 13 17 17 13 16 17 17 12 23 24 31 30 30 25 28
15 18 20 22 24 20 27 16 16 4 21 10 18 11 17 16 22 12 22 24 22 16 13 20 10 11 14 17 20 16 20 20 20 19 18 16 15 14 14 22 22 28 34 26 29
15 17 20 22 21 19 20 11 11 11 14 8 9 12 14 13 18 17 15 10 11 11 12 13 16 17 20 21 21 21 22 22 19 20 17 17 19 16 18 19 23 23 25 34 29
15 17 20 22 14 18 12 19 20 8 6 7 7 7 8 14 17 23 16 18 13 16 14 15 21 19 22 24 21 21 20 22 22 18 16 16 19 18 16 25 30 32 28 29 35
16 18 21 22 8 15 7 21 20 6 3 3 2 2 8 24 4 20 7 11 5 12 17 14 12 14 17 21 18 24 19 24 21 18 13 13 15 16 14 19 20 27 30 28 32
16 19 21 20 15 9 18 21 15 3 4 7 4 5 22 17 18 5 11 8 17 20 9 13 20 22 23 24 21 22 17 20 19 14 14 19 10 14 15 19 21 22 32 34 32
16 19 21 15 10 17 20 20 4 2 5 6 6 17 16 15 16 11 20 21 19 12 17 21 30 20 19 20 20 21 16 13 14 8 12 22 16 10 16 20 18 18 35 37 36
16 19 19 13 14 18 20 7 2 1 7 9 9 13 16 11 12 10 19 11 8 8 13 24 9 4 5 10 10 4 3 3 4 6 11 11 12 17 13 21 23 21 35 41 42
17 18 16 12 17 17 12 2 3 1 2 8 13 17 4 10 8 15 11 12 9 12 15 9 20 7 4 10 6 11 7 2 3 3 5 12 9 14 27 25 27 25 28 40 43
17 18 11 14 17 13 6 2 1 3 5 11 13 5 4 4 8 10 11 7 9 14 7 8 9 15 11 15 4 0 3 8 7 5 5 6 13 13 13 23 23 18 22 37 41
17 12 5 14 13 8 4 2 2 3 6 5 4 6 6 11 11 14 6 5 10 15 16 5 12 9 19 1 2 4 9 0 2 4 4 6 8 4 10 14 11 13 14 25 36
14 6 4 13 9 4 3 2 3 5 5 2 4 6 6 11 13 7 6 12 13 15 23 12 5 13 13 7 11 3 2 4 6 3 3 7 3 7 13 12 9 8 17 14 33
7 3 8 11 4 3 1 1 4 4 4 4 3 6 9 10 7 5 6 10 25 21 16 7 4 6 20 12 2 4 10 6 4 3 3 4 3 10 16 15 14 13 22 21 14
9 3 4 7 2 2 3 2 3 4 5 2 4 3 6 5 7 4 6 13 28 22 6 9 3 7 8 1 1 9 20 18 16 5 2 5 3 17 18 14 18 14 21 21 20
4 2 2 6 5 1 3 1 4 5 8 5 9 10 6 5 7 7 15 10 29 29 7 18 3 6 7 13 10 9 20 23 17 4 6 5 10 17 18 12 13 19 21 25 27
2 1 1 2 2 4 2 2 4 4 2 6 4 1 7 6 15 5 8 21 14 8 15 6 4 8 14 18 9 17 20 20 21 17 7 9 11 17 16 12 14 21 23 32 34
1 1 1 1 2 4 2 2 4 4 3 3 3 8 6 7 11 23 18 15 10 7 16 4 4 12 5 4 11 11 23 15 23 22 9 10 14 16 19 25 27 27 30 34 36
3 2 1 2 1 1 0 3 5 11 4 8 9 12 10 8 18 29 30 27 21 17 8 5 6 7 5 8 8 6 23 13 17 22 11 12 9 13 21 22 28 32 34 36 37
Wind_Direction
13 19 15 12 10 4 359 353 347 339 330 329 329 331 333 334 331 326 305 259 307 324 331 337 337 323 308 273 269 266 242 246 246 248 267 285 286 269 259 241 244 232 1 137 180
24 22 20 13 7 359 352 344 335 330 327 328 329 331 334 336 328 321 265 276 317 326 337 341 332 329 311 287 249 234 238 252 275 280 261 280 321 329 317 174 281 215 164 162 188
22 21 16 8 358 351 343 333 328 328 328 330 328 330 333 336 327 185 272 312 317 324 332 327 316 308 296 281 265 255 250 271 275 285 290 310 297 318 308 276 212 244 186 188 199
21 18 8 356 349 342 335 331 329 327 328 328 326 330 334 346 324 293 303 309 316 317 331 322 319 312 295 295 292 266 269 280 288 289 297 296 296 290 297 283 306 300 237 210 201
16 5 355 348 342 336 333 333 330 327 327 327 324 327 334 314 287 282 303 307 319 330 316 310 309 308 291 303 303 287 280 279 275 276 281 289 282 272 281 292 297 296 251 213 211
6 356 348 342 337 335 335 333 333 328 323 321 317 320 327 292 290 306 303 298 323 315 306 298 293 302 292 273 269 278 285 288 291 289 278 279 282 276 265 277 286 296 278 214 204
1 351 342 336 337 340 337 334 334 325 318 320 315 316 297 273 295 282 285 308 323 312 286 282 286 286 281 299 285 282 281 279 272 270 267 261 262 255 261 264 270 280 291 225 211
356 346 339 339 342 340 338 337 333 324 321 326 319 320 269 295 321 346 305 301 300 290 283 280 275 273 265 264 283 283 278 271 270 253 245 246 255 262 266 255 252 264 265 266 226
352 345 341 341 340 340 341 338 336 328 338 336 341 287 282 324 334 300 293 290 291 299 290 269 262 262 265 259 268 250 260 264 270 265 248 219 249 247 251 251 261 253 256 256 253
348 346 344 341 342 341 343 347 345 338 2 327 6 294 263 325 313 311 317 304 296 296 292 249 240 245 233 223 238 263 255 266 274 287 294 255 256 249 262 258 236 246 256 258 248
347 345 344 343 344 346 347 13 9 357 315 284 287 278 295 304 315 310 313 302 286 261 264 267 236 241 252 262 263 263 267 266 270 272 276 277 290 292 282 241 250 241 242 245 250
346 345 345 344 345 351 357 42 13 311 307 318 268 277 306 308 309 320 329 319 297 281 292 289 268 264 264 265 267 273 275 266 272 265 271 281 281 284 283 281 275 256 230 234 246
344 346 346 346 348 358 353 4 350 335 281 283 273 290 307 322 305 308 312 307 292 282 281 280 280 295 285 276 275 262 262 259 257 271 260 268 267 262 249 255 267 268 270 227 230
343 346 347 352 350 353 321 341 343 343 297 316 317 273 327 330 274 335 32 320 287 295 302 280 274 279 297 286 278 280 273 262 264 262 254 238 264 253 248 251 243 250 251 252 226
342 344 349 350 347 350 338 337 340 30 346 329 317 303 328 330 301 300 324 300 291 287 297 265 292 288 282 273 278 279 276 259 266 243 254 251 254 250 245 255 237 233 238 241 242
338 343 348 353 3 337 337 335 13 250 285 342 317 330 335 326 322 292 319 317 276 275 268 265 281 289 273 291 283 270 262 251 242 230 244 240 227 232 234 238 251 217 226 230 231
336 341 347 353 346 342 338 16 305 30 8 325 330 332 322 330 318 332 325 328 344 324 315 315 287 304 327 316 299 281 175 204 176 213 244 229 231 237 240 227 234 248 211 218 222
335 339 345 351 350 347 358 320 341 29 344 326 331 310 308 351 328 332 317 333 14 13 314 345 322 350 222 295 262 278 274 220 226 226 254 216 226 225 218 240 249 247 227 209 215
334 339 347 351 353 350 24 14 297 355 350 331 322 334 317 333 335 335 326 316 25 22 3 320 287 309 289 305 230 317 194 299 317 241 263 237 246 239 229 216 231 237 257 199 206
336 341 332 348 357 7 56 334 302 4 341 360 315 2 313 340 339 339 311 319 349 17 15 287 293 299 329 44 89 326 328 310 231 294 276 280 267 181 304 219 218 218 230 206 197
339 327 340 349 359 39 71 297 301 323 334 272 317 300 288 330 331 306 294 307 10 349 344 301 245 292 324 357 325 307 330 281 289 219 270 313 73 8 0 11 354 211 195 216 195
344 326 334 353 34 50 24 281 306 292 302 285 273 282 288 318 294 303 290 315 346 348 329 324 294 290 298 293 253 56 2 301 272 189 226 220 251 2 2 9 4 355 32 43 84
318 300 330 2 61 0 298 268 257 298 311 298 286 258 315 341 319 300 301 329 316 338 330 354 300 301 326 182 179 10 349 326 300 231 232 336 353 2 3 10 18 31 39 51 74
327 345 351 61 80 335 353 320 307 271 277 274 286 307 360 293 258 280 301 303 320 309 283 340 260 260 267 281 304 335 359 2 8 37 337 27 354 345 356 14 30 47 55 66 72
24 272 340 355 51 337 111 343 293 334 252 319 314 124 329 305 303 247 289 312 310 288 348 315 280 280 279 276 271 27 4 16 20 1 41 0 20 355 359 31 45 62 64 67 64
246 220 115 110 310 316 112 275 310 325 280 297 214 299 312 279 276 296 313 314 293 318 331 321 276 315 291 353 88 53 16 13 22 11 7 25 36 0 22 44 49 55 64 66 66
216 234 263 121 106 11 352 326 306 335 272 260 313 315 305 291 309 290 281 276 268 294 310 295 320 326 290 326 318 23 13 4 21 24 355 21 25 21 39 43 43 52 63 66 67